User: anonymous   Login
Location: Franzen
(48.6167°N, 15.3833°E)
Time: 11:44:42
(UTC+00:00)
Language:

A-11 Canister half - Orbit

View from above orbital plane
View from above orbital plane
View from above satellite
View from above satellite

Ground track
Ground track

The orbit data is extracted from the following two-line orbital elements,

1 00051U 60009C   21213.85782291 -.00000160  00000-0 -73489-3 0  9995
2 00051  47.2119 157.7317 0108968 303.6010  55.4417 12.18277192714129
Epoch (UTC): 01 August 2021 20:35:15
Eccentricity: 0.0108968
inclination: 47.2119°
perigee height: 1513 km
apogee height: 1687 km
right ascension of ascending node: 157.7317°
argument of perigee: 303.6010°
revolutions per day: 12.18277192
mean anomaly at epoch: 55.4417°
orbit number at epoch: 71412

The dashed part of the orbit path shows where the satellite is in the earth's shadow,  

DLR